Regional Weather Roundup
Issued by NWS

Home | Current Version | Previous Version | Text Only | Print | Product List | Glossary Off
Versions: 1 2 3 4 5 6 7 8 9 10 11 12 13 14 15 16 17 18 19 20 21 22 23 24 25 26 27 28 29 30 31 32 33 34 35 36 37 38 39 40 41 42 43 44 45 46 47 48 49 50

000
ASUS43 KFSD 180810
RWRSD

WEATHER ROUNDUP FOR SOUTH DAKOTA
NATIONAL WEATHER SERVICE SIOUX FALLS SD
300 AM CDT SAT APR 18 2015

NOTE: "FAIR" INDICATES FEW OR NO CLOUDS BELOW 12,000 FEET WITH NO
SIGNIFICANT WEATHER AND/OR OBSTRUCTIONS TO VISIBILITY.


SDZ001>005-009-010-012>017-180900-
NORTHWEST AND NORTH CENTRAL SOUTH DAKOTA

CITY           SKY/WX    TMP DP  RH WIND       PRES   REMARKS
BUFFALO          N/A     45  30  55 S8        29.99F
FAITH            N/A     49  37  63 W5        30.06F
MOBRIDGE       MOCLDY    50  24  36 E14       30.04S
$$

SDZ012>016-024>037-041>051-057-063-072>074-180900-
SOUTHWEST AND SOUTH CENTRAL SOUTH DAKOTA

CITY           SKY/WX    TMP DP  RH WIND       PRES   REMARKS
RAPID CTY ARPT CLOUDY    48  45  89 CALM      30.06F
PIERRE         CLOUDY    53  47  79 N9        30.03F
CUSTER         CLOUDY    41  39  93 E8        30.06F FOG
ELLSWORTH AFB  CLOUDY    48  46  93 W5        30.05F
PHILIP         CLOUDY    50  48  93 NW3       30.04F
PINE RIDGE     LGT RAIN  48  46  93 E8        30.03F
SPEARFISH      CLOUDY    46  39  76 E5        30.07F
WINNER         CLOUDY    53  49  86 W8        30.03S
$$

SDZ004>011-016>023-039-040-180900-
NORTHEAST SOUTH DAKOTA

CITY           SKY/WX    TMP DP  RH WIND       PRES   REMARKS
ABERDEEN       CLOUDY    46  28  49 NE9       30.06F
WATERTOWN      PTCLDY    40  27  59 N3        30.05F
BROOKINGS      PTCLDY    43  28  56 CALM      30.06S
SISSETON         N/A     42  25  50 N9        30.07F
$$

SDZ017-020-022-023-036>040-048>070-180900-
SOUTHEAST SOUTH DAKOTA

CITY           SKY/WX    TMP DP  RH WIND       PRES   REMARKS
SIOUX FALLS    PTCLDY    49  28  44 NE5       30.02S
HURON          CLOUDY    48  33  56 CALM      30.03F
CHAMBERLAIN    CLOUDY    55  36  47 CALM      30.02F
MITCHELL       MOCLDY    56  28  34 NE7       30.02F
YANKTON        MOCLDY    57  43  58 NE8       30.00F
$$

ABBREVIATIONS USED IN REMARKS
   TC - TEMPERATURE IN CELSIUS
  WCI - WIND CHILL INDEX
   HX - HEAT INDEX
  VSB - VISIBILITY




USA.gov is the U.S. government's official web portal to all federal, state and local government web resources and services.